Torna al catalogo

SL-14 R/B

AttivoPO
NORAD 15332·ROCKET BODY·🇷🇺 Russia

Lanciato Sep 28, 1984 da Plesetsk Cosmodrome

Loading…

Prossimi Passaggi (prossime 24 ore)

TLE

AggiornatoSource: Space-Track

Epoca: Sep 14, 2026, 07:44 UTC

1 15332U 84105B   26257.32252410  .00000295  00000-0  30870-4 0  9991
2 15332  82.5299 268.5056 0020706  28.6039 342.0446 14.85974749246234

Traccia SL-14 R/B in tempo reale con AllMySat

Download on the App Store